Weather in Mnichovo Hradiste

Czech Republic     50°31′17″N   14°58′24″E
temp.,
°C
wind,
m/s
gust,
m/s
humid.,
%
clouds,
%
prec.,
mm/h
press.,
hPa
HPBL,
m
11 april, sun
sun1123:00+6ene229125 0.0 101611
02:00+6e3391100 0.0 101559
05:00+5e4988100 0.0 1014159
08:00+7ese51078100 0.0 1015412
11:00+11se6771100 0.0 1013930
14:00+13se4562100 0.0 1012953
17:00+15se4556100 0.0 1011886
20:00+11se4117632 0.0 1012224
12 april, mon
mon1223:00+8e411895 0.0 1013213
02:00+6e36898 0.0 1015110
05:00+5nnw369533 0.1 1016148
08:00+4nnw6988100 0.1 1019475
11:00+2nnw71295100 0.8 1021634
14:00+2nnw51296100 5.3 1024721
17:00+3nnw51091100 1.0 1025751
20:00+2nnw3898100 1.5 1026570
13 april, tue
tue1323:00+2wnw2393100 0.0 1027102
02:00+2nw2290100 0.0 102827
05:00+1nnw2286100 0.0 102825
08:00+2nnw3884100 0.0 1029361
11:00+5nnw5769100 0.0 10291007
14:00+7nnw6754100 0.1 10281856
17:00+7nnw6747100 0.0 10271911
20:00+3nw3768100 0.0 1028175
14 april, wed
wed1423:00+2nw387293 0.0 1029228
02:00+1nnw41181100 0.0 1028414
05:00+1nnw41181100 0.0 1028488
08:00+2nnw51081100 0.0 1029611
11:00+5nnw6855100 0.0 10281430
14:00+7nnw6744100 0.0 10272163
17:00+6nnw5745100 0.0 10251844
20:00+3nnw3560100 0.0 102688
15 april, thu
thu1523:00+2nw3871100 0.0 1026192
02:00+1nw4982100 0.0 1025352
05:00+1nnw4993100 0.1 1025512
08:00+2nnw5880100 0.1 1026566
11:00+4n6753100 0.0 10261417
14:00+5n6755100 0.0 10261476
17:00+5n675793 0.0 10251242
20:00+2n4877100 0.0 1026458